Weather in Tundutovo

Russia / Republic of Kalmykia     47°56′23″N   44°37′42″E
temp.,
°C
wind,
m/s
gust,
m/s
humid.,
%
clouds,
%
prec.,
mm/h
press.,
hPa
HPBL,
m
15 april, thu
thu1500:00+14w2260100 0.0 101617
03:00+13nnw4564100 0.0 101576
06:00+12nw3572100 0.0 1015101
09:00+16nw4560100 0.0 1015334
12:00+20wnw554527 0.0 10151204
15:00+21nw6543100 0.0 10141582
18:00+18wnw5853100 0.0 1014239
21:00+15wnw6116259 0.0 1015265
16 april, fri
fri1600:00+13wnw5126678 0.3 1015239
03:00+12wnw5116891 0.3 1016224
06:00+11nw5117334 0.0 1017232
09:00+17nw585083 0.0 1018708
12:00+19nw5640100 0.0 10181425
15:00+21nw55332 0.0 10171836
18:00+19nnw334211 0.0 101741
21:00+14n1153100 0.0 101811
17 april, sat
sat1700:00+14wsw5854100 0.0 1019139
03:00+12nw378189 0.0 1018200
06:00+11nw3584100 0.0 1019110
09:00+13w4579100 0.1 1020462
12:00+11w5890100 4.3 1022466
15:00+14wsw246629 6.9 10211075
18:00+15wsw225969 0.1 102125
21:00+11wnw336298 0.1 102131
18 april, sun
sun1800:00+10w33655 0.0 102123
03:00+8w22765 0.0 102110
06:00+9s117989 0.0 102110
09:00+14sse2259100 0.0 1020591
12:00+16sse2246100 0.0 10191772
15:00+17ese2241100 0.0 10181901
18:00+16ene2250100 0.0 101831
21:00+13ene4757100 0.0 1018125
19 april, mon
mon1900:00+13se2260100 0.0 101845
03:00+13e3559100 0.0 1017106
06:00+12sse2471100 0.0 1017118
09:00+11ese2390100 0.9 1017200
12:00+11ese3389100 0.6 1017263
15:00+11ene3387100 0.8 1016261
18:00+12ene2386100 0.0 1016154
21:00+11ene2386100 0.0 101596